RH
23 21 19 19 19 22 25 28 33 35 37 40 43 47 52 51 48 48 47 45 43 42 38 37 42 46 47 48 51 53 55 56 59 67 77 82 80 78 83 98 104 107 109 103 102 100 100 101 101 102 97 90 78 68 81 97 95 103 96 71 65 64 69 72 78 85 77 78 85 88 84 75 77 85 98 103 92 85 75 62 53 43 40 39 37 37 40 56 64 53 41 42 48 45 36 30 29
27 26 24 22 20 18 18 19 22 25 31 36 43 55 69 68 61 58 53 47 43 38 32 32 38 43 46 45 47 50 54 55 57 61 66 72 77 81 85 99 107 108 107 103 103 100 100 100 101 105 98 94 87 82 96 104 102 107 90 68 59 55 67 72 78 82 74 78 81 82 86 80 78 90 106 102 91 84 74 62 51 44 43 39 36 39 51 65 62 47 40 46 48 39 34 31 31
25 26 27 27 25 22 20 18 18 19 21 25 31 40 58 75 84 82 65 48 39 32 28 28 32 39 43 42 42 46 53 55 56 59 61 63 69 78 86 99 106 107 107 104 103 101 102 101 101 105 103 98 92 95 102 102 98 99 97 87 63 49 61 68 69 69 66 74 81 84 86 85 82 92 106 100 91 84 73 61 50 45 45 39 37 46 61 65 58 49 46 51 47 36 33 33 32
23 24 25 26 26 26 25 24 23 22 22 25 28 28 35 52 75 90 79 55 39 29 26 25 28 34 38 39 38 43 51 53 55 57 60 60 63 72 84 98 105 105 105 101 100 101 102 102 100 102 105 97 93 100 97 93 89 91 104 95 62 48 57 63 61 57 61 75 88 90 86 87 89 97 104 98 91 84 71 60 51 48 47 40 39 54 64 62 60 56 55 56 47 35 33 33 32
23 23 23 24 23 24 25 27 30 31 35 38 33 28 28 30 41 62 70 63 49 35 28 26 28 32 36 39 38 42 47 49 53 56 60 62 63 68 80 98 104 105 103 96 100 104 101 103 99 100 103 87 84 90 83 86 83 83 96 80 55 49 57 67 67 61 61 75 86 87 88 90 93 103 105 97 91 84 70 59 54 51 49 42 40 53 60 61 64 64 66 63 50 38 32 31 32
23 23 22 22 21 22 23 25 31 35 45 47 40 37 32 28 26 31 41 51 52 42 35 32 30 31 35 38 38 39 40 43 50 55 62 66 68 70 81 99 102 104 104 97 103 106 100 103 100 99 101 84 80 84 83 95 91 85 84 65 52 50 57 70 73 65 60 70 75 78 92 96 99 106 103 98 93 82 68 60 58 55 52 44 41 48 56 59 62 69 79 73 54 42 33 30 32
24 24 22 22 20 20 21 24 30 34 43 45 45 52 44 33 29 24 24 31 39 40 41 41 34 29 31 34 37 37 35 36 43 52 61 67 72 77 89 103 101 103 105 100 103 103 99 102 100 100 100 88 84 89 95 101 99 98 94 77 59 51 58 68 68 62 58 62 64 73 92 101 104 106 102 99 93 81 68 63 61 58 55 46 42 45 51 54 57 68 85 84 61 46 37 29 32
26 25 23 23 21 20 22 24 30 34 39 40 42 54 53 43 36 29 25 21 25 29 39 47 39 31 29 32 34 35 36 34 36 45 56 63 70 80 96 104 101 101 104 102 101 101 100 100 101 102 101 95 85 80 86 94 96 94 95 96 74 59 70 69 58 56 54 56 64 79 94 101 103 99 98 97 92 83 70 65 65 61 56 49 48 49 51 51 53 65 84 92 69 48 39 30 31
28 25 24 24 22 21 23 25 30 33 37 39 40 47 51 50 44 36 30 22 20 20 27 38 41 37 32 33 33 34 39 36 35 41 49 59 66 79 97 104 101 102 102 102 100 100 101 101 101 101 101 101 92 79 77 86 88 78 84 102 85 63 70 66 49 48 56 62 77 94 100 102 98 91 93 96 93 86 75 69 68 64 56 50 56 62 62 56 56 67 82 93 74 47 37 31 31
32 28 26 25 23 22 24 28 31 33 36 38 39 42 45 47 47 43 37 27 21 18 18 23 33 38 35 38 37 34 37 37 39 41 43 53 63 77 96 104 101 101 102 101 101 100 102 102 99 100 101 100 100 95 86 86 83 74 76 92 89 65 63 64 44 47 70 81 92 101 103 103 96 90 91 94 93 89 82 76 71 65 56 51 60 75 76 65 62 71 82 91 76 46 35 32 31
33 32 30 27 25 24 26 29 31 32 34 34 36 39 41 43 42 41 41 36 27 20 18 16 22 29 32 40 43 37 36 37 40 41 42 46 57 72 91 103 101 100 103 102 101 101 101 101 99 100 101 99 103 100 94 96 93 89 81 79 82 64 57 61 44 51 79 91 100 103 98 96 95 92 92 93 92 92 89 82 73 63 55 48 57 78 82 70 66 76 84 91 78 49 35 32 33
27 28 30 29 29 29 29 29 29 31 32 33 35 37 38 39 39 39 39 39 35 26 21 18 17 21 23 32 44 43 37 37 36 37 41 44 52 66 85 101 101 100 103 102 101 101 101 101 101 101 99 98 102 102 98 99 100 102 97 91 90 68 50 47 41 55 77 81 94 103 96 87 85 86 89 94 93 95 94 85 73 62 55 45 52 72 76 72 75 83 88 92 84 56 37 34 36
24 24 25 26 28 30 31 31 32 31 31 33 36 36 36 36 37 39 38 36 36 32 29 24 17 16 16 21 34 44 43 38 34 35 39 45 54 62 78 97 101 100 102 102 102 102 103 101 101 102 97 95 99 102 98 97 99 96 97 100 100 82 53 43 51 65 72 72 84 100 100 89 82 80 80 86 90 97 97 85 72 62 55 43 49 65 72 80 84 88 91 96 93 62 40 38 39
28 25 23 22 23 26 28 32 34 34 35 36 37 37 36 35 35 37 39 36 34 33 32 28 20 16 14 16 23 39 48 40 34 36 38 46 61 66 73 95 101 99 104 101 101 102 101 100 100 100 97 92 94 99 98 102 96 77 82 97 103 96 72 64 76 82 78 79 91 102 105 97 91 86 73 75 88 98 95 83 73 64 55 42 48 63 77 90 89 87 93 102 97 63 43 44 41
31 28 26 24 22 22 24 26 30 33 36 38 39 39 37 36 36 35 36 36 34 31 28 26 23 19 16 17 18 27 42 41 34 32 36 49 66 70 71 95 102 99 107 99 96 101 99 101 100 99 101 97 97 101 100 102 88 60 65 82 94 91 71 73 90 95 84 78 85 90 101 103 97 93 77 71 83 95 94 85 78 68 53 39 47 67 83 94 91 86 96 107 94 58 46 48 45
27 26 26 25 24 24 25 24 26 28 32 35 37 39 39 38 37 35 35 35 34 30 27 25 23 23 23 21 17 19 30 42 44 34 40 54 62 67 72 94 106 100 106 100 93 100 101 101 100 100 102 102 103 105 103 100 84 62 56 56 71 74 47 51 82 97 89 78 74 68 84 101 96 92 82 76 82 94 98 89 83 70 49 36 46 67 81 91 91 89 100 106 85 55 49 53 50
26 23 23 23 24 26 28 26 25 25 27 30 32 35 37 39 39 37 36 35 35 33 29 26 22 24 27 27 21 16 21 38 52 45 52 65 58 63 76 94 108 101 103 102 95 98 101 100 100 100 100 102 101 101 103 97 82 69 63 53 60 69 44 35 62 87 94 86 73 62 73 92 92 83 75 79 87 98 100 89 79 62 43 37 47 64 77 85 88 94 102 99 77 55 54 58 53
31 27 24 21 21 24 27 27 25 25 26 28 29 31 33 36 38 39 39 38 36 34 30 26 23 21 25 29 26 19 18 28 48 55 64 71 58 66 87 100 108 102 102 103 99 100 102 101 100 99 100 102 97 96 97 90 86 83 83 74 64 64 47 33 43 64 81 75 63 66 75 85 88 75 64 73 82 89 89 80 68 50 39 41 52 64 73 79 87 100 101 90 73 58 59 60 52
29 29 28 25 22 22 24 25 26 27 27 28 29 29 30 31 34 36 38 40 38 36 33 28 23 21 21 25 29 26 20 19 37 56 64 65 60 73 94 106 108 99 101 105 103 102 101 101 100 100 99 99 98 97 96 93 95 94 94 87 69 62 51 40 37 41 50 46 51 71 80 86 87 73 61 63 67 69 69 64 55 44 42 46 57 69 76 79 85 96 97 87 71 62 64 59 51
26 26 28 29 26 23 22 23 25 26 27 28 30 31 31 31 33 32 34 38 39 39 37 32 25 22 21 21 27 30 25 16 26 50 64 67 65 76 96 109 108 98 99 105 105 102 102 102 99 102 97 97 102 94 94 98 94 92 97 89 66 58 56 49 43 35 34 40 62 83 85 84 80 69 59 55 52 51 54 53 49 49 51 54 62 71 76 76 80 91 94 84 69 68 67 56 53
29 27 26 27 27 25 23 23 24 25 26 28 30 32 34 35 34 33 33 33 36 39 38 37 29 23 22 20 23 30 31 19 17 36 62 77 71 75 96 104 101 99 97 101 106 104 103 102 99 102 96 98 102 86 84 90 90 96 101 91 67 52 47 43 42 37 38 53 83 99 92 82 68 58 54 53 50 44 44 45 49 57 61 66 71 72 73 74 81 92 94 84 71 69 64 52 51
33 31 29 26 25 27 26 24 23 25 25 26 29 31 33 36 35 35 35 33 33 36 37 39 34 26 23 22 21 27 34 27 17 24 51 79 76 74 93 96 90 95 97 98 105 104 101 102 100 101 98 102 102 87 80 77 84 98 92 76 64 55 45 40 41 38 44 65 93 103 96 88 73 58 51 52 53 48 49 51 54 64 74 84 83 78 77 79 84 92 96 84 63 55 53 50 51
34 33 31 29 26 27 28 28 25 24 26 26 27 29 31 32 34 34 34 34 34 33 34 36 36 30 24 22 22 23 31 33 24 19 38 68 75 73 87 95 89 87 94 100 102 100 101 103 102 100 99 103 103 95 90 79 76 86 79 61 57 61 55 53 51 45 59 82 101 101 91 91 87 79 69 57 52 53 64 76 79 82 90 96 93 87 85 85 88 96 100 81 51 43 50 55 54
33 33 32 31 29 26 26 29 27 24 25 26 26 27 30 31 32 32 31 33 34 34 33 33 35 32 25 22 22 22 27 33 30 21 27 50 70 80 83 80 77 79 89 102 104 99 101 102 101 102 101 101 101 98 100 92 76 75 75 67 69 68 57 64 66 65 83 98 105 101 92 93 90 90 93 83 68 59 70 91 100 99 100 101 98 95 94 94 96 101 100 74 46 48 61 62 58
32 34 33 32 30 27 25 26 26 24 23 24 27 27 29 30 31 32 31 31 32 34 34 32 33 31 27 21 20 23 25 29 33 28 23 35 61 85 85 66 63 75 83 97 106 100 100 103 100 100 102 101 99 99 101 96 82 76 77 81 91 73 53 71 85 87 99 102 105 105 99 99 89 83 91 98 95 85 84 94 100 102 100 100 100 100 99 99 101 96 78 56 50 65 76 69 66
34 36 35 34 31 29 26 24 24 24 22 22 24 27 28 29 29 31 32 31 29 31 34 33 32 30 27 21 18 20 25 27 32 34 27 27 45 73 86 68 62 73 74 87 104 101 100 103 100 101 103 96 92 99 101 96 91 88 84 91 100 72 49 72 93 97 101 103 104 105 103 100 86 77 84 94 99 99 99 99 101 101 99 100 101 101 100 101 104 82 54 55 72 85 84 75 79
34 35 36 36 33 31 28 24 22 21 22 20 20 23 25 26 27 30 32 32 29 28 30 32 32 30 26 21 18 17 23 27 29 36 31 23 32 57 80 74 64 63 61 77 99 103 101 101 100 101 105 93 76 85 98 98 99 100 92 91 98 76 48 61 84 90 93 101 103 102 103 95 80 71 80 93 98 100 101 101 101 100 100 99 96 98 102 104 94 63 55 82 95 89 84 85 92
31 32 33 34 34 32 29 26 23 21 21 20 19 20 21 22 23 26 29 31 31 28 27 29 30 31 29 23 18 16 20 25 28 33 32 27 24 44 77 80 65 52 48 66 90 104 103 101 103 101 105 95 66 61 78 90 96 102 97 89 95 90 60 49 65 74 75 86 97 102 98 87 75 65 71 88 95 97 100 101 102 103 102 93 90 95 96 90 68 47 65 95 95 87 90 96 99
31 31 32 32 32 32 30 29 28 25 21 19 18 19 20 20 21 22 25 27 30 31 28 27 28 30 31 26 20 17 18 23 27 29 31 31 22 35 72 81 69 55 43 48 66 91 101 98 102 103 103 100 80 59 56 66 78 89 95 89 92 99 84 58 52 58 62 69 83 97 96 86 76 64 68 85 90 89 89 91 94 98 96 87 83 81 78 72 55 53 77 94 94 96 100 103 103
33 33 33 32 31 31 31 30 31 30 26 22 19 19 19 19 19 20 22 25 27 30 30 29 28 28 30 30 24 18 18 21 25 27 27 31 25 30 56 69 66 57 42 36 40 59 81 90 96 102 102 100 96 83 68 65 69 75 81 81 82 90 92 75 57 53 54 59 70 84 92 92 83 68 67 80 92 95 91 86 82 77 74 73 73 73 82 82 68 76 95 101 102 104 106 107 105
32 32 33 32 31 30 30 29 29 28 26 25 24 23 21 19 18 18 19 21 23 26 28 28 28 27 27 30 27 20 18 20 24 27 25 29 29 24 39 52 53 58 59 55 51 45 51 68 82 95 100 100 102 97 87 80 78 82 82 80 77 78 81 76 64 54 49 55 65 73 81 87 89 82 76 77 84 95 100 98 92 85 78 78 82 88 100 96 85 94 105 106 107 106 105 104 104
29 29 31 31 30 29 28 28 27 25 23 23 24 25 25 24 22 20 19 20 22 24 26 27 26 26 26 27 28 23 19 19 23 26 24 26 30 21 26 48 59 76 88 84 85 79 64 60 70 89 100 100 102 100 93 85 80 84 89 86 79 79 78 70 62 52 48 56 66 72 73 76 84 87 89 89 86 86 95 102 101 99 97 95 98 100 102 99 98 104 103 98 100 100 97 98 103
25 26 27 28 28 27 26 27 26 25 23 22 22 23 24 25 25 23 22 22 23 25 25 26 26 24 25 25 26 25 19 18 21 26 25 24 31 23 20 54 81 94 103 96 97 106 102 88 78 90 105 105 102 103 100 90 82 79 81 81 75 77 78 70 63 53 48 53 60 69 69 71 76 78 84 91 95 91 92 102 97 89 94 99 101 101 100 101 103 100 89 80 82 90 92 97 103
22 22 22 23 25 24 22 22 23 23 23 22 22 22 23 25 26 24 23 23 23 24 25 26 26 24 23 24 24 24 19 17 19 25 27 23 30 27 25 63 92 100 110 103 97 101 107 110 94 83 97 109 105 100 99 94 88 81 75 72 65 66 68 65 65 60 55 54 53 58 63 68 72 73 78 84 96 99 97 102 93 82 89 100 102 101 101 102 96 83 70 65 72 85 93 98 101
21 20 20 21 22 21 19 17 18 19 20 20 20 21 24 25 27 26 25 24 23 24 26 26 27 24 23 23 22 23 20 16 18 23 27 25 27 28 40 78 95 101 112 99 92 96 97 108 102 85 91 106 103 94 94 93 88 84 80 72 63 62 63 62 66 66 66 62 56 55 57 63 68 71 78 84 92 98 98 101 99 95 97 101 103 102 101 93 80 69 63 64 74 87 96 99 97
20 20 20 20 20 20 17 15 13 15 17 18 18 19 23 25 26 27 25 25 25 25 27 27 28 26 23 22 21 22 20 17 17 21 26 25 27 26 39 80 99 106 112 92 88 96 95 100 99 97 101 103 102 97 98 101 98 94 87 77 68 66 66 65 68 70 71 69 61 57 55 57 62 64 70 75 78 78 77 78 83 93 100 102 104 100 91 78 70 68 65 67 78 93 100 98 94
20 20 20 20 20 20 17 17 14 13 16 17 16 16 21 24 25 25 24 25 25 25 27 28 29 28 24 22 21 21 20 18 16 19 26 24 27 25 31 73 101 106 105 90 91 99 96 96 94 101 105 100 101 100 102 108 108 103 96 90 81 72 65 60 62 66 70 71 65 61 58 55 56 57 58 58 59 59 60 59 58 65 82 95 96 87 75 70 70 66 64 71 83 93 96 94 94
21 22 23 23 23 23 19 19 17 15 17 18 16 15 18 21 22 23 22 23 24 25 26 27 29 28 26 22 21 21 19 19 15 16 24 23 28 31 33 70 100 99 97 92 96 102 98 95 95 100 102 102 103 100 101 104 104 105 104 99 87 73 62 51 55 63 68 74 77 77 71 66 63 60 58 52 52 58 59 58 55 58 76 88 83 73 67 67 66 65 68 74 82 90 92 92 92
24 24 25 25 25 25 22 20 18 17 18 18 16 15 19 19 19 20 20 20 22 24 25 26 28 28 27 23 20 21 19 19 16 14 22 22 31 41 39 67 101 98 95 96 98 104 104 100 99 99 98 102 106 102 101 99 97 102 103 98 83 74 70 63 69 78 83 90 96 99 96 92 85 74 71 63 60 65 62 62 72 83 96 95 80 69 64 63 65 69 73 75 82 89 90 87 80
26 27 26 26 26 27 26 22 20 18 18 20 17 16 20 20 18 17 17 18 18 21 24 24 27 26 26 24 20 20 19 19 17 13 20 20 28 43 42 63 98 100 95 97 99 104 104 101 102 100 95 100 107 105 102 100 98 98 102 102 91 88 90 88 93 94 96 103 103 106 108 107 101 91 88 81 72 71 69 77 94 105 105 94 79 69 63 64 70 76 78 81 83 83 83 80 72
36 36 30 29 29 28 27 24 20 18 16 17 17 18 21 18 17 17 15 16 17 18 21 23 25 25 25 24 21 20 18 18 17 12 17 20 23 35 41 54 77 92 98 96 96 102 101 99 100 97 96 104 109 106 102 102 98 93 101 108 101 101 100 97 103 102 103 108 105 102 102 105 105 101 99 93 83 79 82 93 102 105 103 92 77 67 65 71 76 80 82 82 79 81 85 82 76
38 39 34 31 30 28 27 25 22 19 16 16 17 19 21 17 15 17 15 15 16 17 18 21 23 23 24 24 21 20 18 16 17 13 13 19 23 28 38 46 60 87 102 95 96 104 102 101 102 101 102 105 105 102 101 102 95 86 93 103 104 104 100 96 101 107 107 106 101 94 95 104 105 103 104 94 85 86 92 101 102 103 100 86 74 69 73 80 83 83 82 81 82 84 85 84 85
39 42 43 42 42 38 32 29 25 22 19 16 15 19 22 20 14 15 15 14 15 15 16 18 21 22 22 23 21 19 18 16 14 14 12 15 22 25 31 37 55 90 104 97 99 102 97 96 101 104 101 99 102 102 103 101 92 92 95 94 98 103 101 100 100 104 103 95 92 89 95 109 107 102 103 91 89 95 99 104 105 103 94 78 75 78 81 85 86 83 79 79 82 83 85 91 89
59 58 59 59 59 54 46 39 32 29 26 17 14 18 23 23 16 12 13 15 17 15 15 16 18 21 21 22 22 19 19 17 14 14 12 13 18 23 28 28 46 88 106 100 101 99 96 97 99 100 95 97 104 102 103 96 83 96 102 82 81 95 99 101 100 102 103 95 93 85 83 102 107 100 98 95 99 102 100 104 107 102 92 81 80 85 86 85 84 81 76 77 81 86 94 93 79
84 82 78 75 71 63 55 49 40 34 30 20 15 20 25 23 16 12 11 13 16 14 14 15 15 19 21 21 22 20 19 18 16 15 11 13 16 20 27 22 35 83 106 99 102 103 98 101 102 98 96 101 104 101 102 94 76 80 84 70 69 82 93 102 101 101 104 100 98 86 75 90 103 99 100 105 106 102 103 107 105 103 97 89 86 89 90 87 85 84 83 84 87 91 93 85 74
96 90 81 78 75 67 58 56 51 42 33 23 17 21 26 22 14 12 12 11 13 13 12 13 13 16 19 20 21 21 20 18 18 17 13 12 13 18 25 19 28 77 108 97 100 108 99 98 103 99 97 101 104 104 101 98 84 64 67 85 88 86 96 104 101 102 105 101 100 94 85 89 99 100 102 109 109 106 107 106 102 103 102 98 95 97 97 93 91 91 90 93 94 92 89 86 84
94 87 74 65 57 52 49 50 51 45 36 28 21 20 25 22 12 9 11 9 10 12 12 12 12 13 17 19 20 21 21 19 18 18 16 13 12 15 22 20 21 59 102 103 98 107 100 94 99 100 100 101 105 106 98 99 95 73 81 107 99 89 100 106 103 104 104 101 99 100 96 92 95 100 101 106 111 109 105 105 104 104 105 105 102 103 104 103 100 97 95 93 91 89 89 93 91
96 93 86 74 60 52 48 47 46 42 40 36 26 22 23 20 12 8 9 10 9 10 12 13 13 12 14 17 19 21 21 20 19 18 18 15 13 13 18 23 19 31 74 100 103 106 99 93 97 101 104 106 110 103 89 97 104 93 102 108 91 89 102 104 103 102 101 102 101 102 103 95 91 97 101 104 107 107 105 107 107 105 107 107 102 101 105 107 104 100 98 93 86 85 87 89 82
93 88 85 82 77 69 58 54 49 41 44 49 37 26 23 20 15 10 8 10 10 10 10 11 13 12 12 14 18 20 21 21 19 19 19 16 14 14 14 21 22 19 36 71 102 106 94 95 98 100 105 102 100 90 78 94 110 104 104 101 93 97 100 100 102 102 102 103 101 101 101 94 84 86 97 103 102 103 107 106 105 106 107 107 104 100 103 109 105 94 87 79 71 70 71 69 60
85 81 79 80 85 84 76 72 66 47 41 51 46 30 24 20 16 13 10 11 11 9 9 10 11 12 11 12 14 17 20 21 19 18 19 18 16 14 14 17 21 23 18 38 89 102 89 99 101 98 105 89 75 74 71 84 101 103 102 97 97 101 99 100 104 103 101 99 101 104 101 94 82 77 87 96 97 101 107 106 105 106 105 105 104 103 105 104 94 80 69 62 58 56 53 47 41
87 88 88 84 85 90 91 88 86 69 47 48 50 38 30 21 16 14 11 12 13 10 10 9 9 11 11 10 12 14 17 19 20 18 18 18 17 13 15 15 15 25 20 24 75 101 90 101 103 92 95 76 55 62 69 77 90 101 103 91 92 101 100 101 102 100 100 98 102 104 98 90 81 75 78 83 87 92 98 102 103 104 106 105 100 99 101 92 76 65 60 60 59 52 45 40 40
98 102 97 87 83 94 103 97 96 90 68 60 61 51 40 29 20 17 11 10 12 11 10 9 8 9 10 10 10 11 14 17 18 18 17 17 19 15 14 16 13 21 23 22 65 101 93 100 104 86 76 60 42 46 65 81 90 99 97 79 79 91 96 102 102 100 101 99 102 103 96 91 86 75 68 71 79 83 89 98 103 104 107 107 101 95 93 85 75 67 62 61 57 48 44 46 47
105 107 102 94 90 100 112 106 105 104 88 83 88 78 62 47 30 20 14 10 9 10 10 9 9 9 9 9 9 9 11 13 15 16 16 14 18 18 14 15 14 16 20 20 56 100 100 97 105 88 67 54 38 31 50 76 88 98 97 79 73 75 80 91 95 98 102 100 104 102 88 87 88 74 64 69 78 87 96 102 103 106 106 104 103 97 89 82 76 69 62 59 55 49 49 52 58
107 106 106 99 94 102 113 110 109 111 98 92 99 100 90 73 49 29 21 15 9 8 8 8 9 8 8 8 8 9 8 10 13 14 16 15 15 18 16 15 14 14 18 16 44 95 107 100 101 86 63 50 36 26 37 59 75 88 96 93 89 85 84 87 88 94 100 100 103 91 73 79 85 71 60 64 79 97 105 104 104 107 105 102 104 103 96 90 83 77 70 65 61 56 56 64 77
105 104 104 98 94 103 113 110 108 111 103 86 83 94 96 84 64 44 32 24 14 8 7 7 8 6 8 8 7 9 7 8 11 11 15 15 14 17 16 16 15 13 17 14 28 70 97 106 102 76 52 41 34 29 29 42 60 68 79 90 95 97 100 99 95 91 90 96 103 86 67 74 82 71 55 55 82 106 106 103 107 105 96 90 97 102 98 95 94 89 80 71 67 67 72 83 90
106 104 105 104 99 103 109 108 105 107 102 83 67 73 84 82 71 54 41 33 22 13 7 5 7 5 6 7 6 7 7 7 9 9 13 14 14 16 15 17 16 13 16 14 18 37 60 83 85 62 50 41 32 31 27 32 46 51 62 81 90 95 97 97 101 94 81 83 90 80 69 72 78 76 62 59 86 106 102 102 107 106 96 81 82 91 91 92 95 92 85 79 78 82 87 89 84
101 103 106 107 105 105 106 105 106 108 104 90 72 64 68 71 67 55 44 36 26 17 10 5 5 5 5 6 6 6 5 6 7 7 11 12 14 15 14 16 16 14 16 14 15 21 28 43 48 44 54 54 38 34 33 33 35 36 58 84 94 96 93 90 98 102 94 84 73 64 67 77 80 76 66 65 81 93 98 102 99 101 101 86 80 84 84 86 89 87 85 82 81 82 79 76 73
82 95 101 103 105 104 104 104 108 110 105 94 82 74 72 69 64 55 45 37 26 18 11 6 4 4 4 5 5 5 5 5 6 6 8 10 12 15 14 15 15 15 17 14 15 17 17 23 25 26 46 61 51 37 33 35 27 29 65 95 95 93 95 94 93 97 104 100 78 57 50 59 73 76 69 67 74 78 88 99 94 91 93 89 86 84 80 79 78 77 79 76 73 71 68 68 69
Wind_Speed
39 40 40 42 42 43 44 44 45 44 44 44 45 45 47 50 52 54 56 57 57 58 59 60 61 61 60 58 57 56 56 56 56 56 57 56 54 52 50 50 49 49 49 51 50 49 46 45 45 43 40 38 38 37 36 38 37 34 34 34 34 34 34 33 31 30 28 27 26 27 27 26 26 25 25 25 24 22 21 21 22 22 23 23 22 19 13 10 10 13 17 21 24 25 24 23 22
37 37 38 39 40 41 41 42 42 41 42 42 43 44 46 48 50 53 55 56 56 56 58 59 60 60 59 58 57 56 55 56 55 56 56 55 54 52 51 50 50 49 49 50 49 48 45 43 42 43 42 39 37 32 31 34 33 33 36 35 35 34 32 32 31 30 29 28 28 29 28 27 27 26 26 25 24 22 21 22 22 22 23 22 20 15 9 8 10 14 19 22 25 26 24 23 22
35 36 36 37 38 38 38 39 38 38 40 40 41 44 46 48 49 51 54 54 55 56 58 59 59 59 59 58 56 55 55 55 55 55 55 55 53 52 51 51 50 50 49 49 48 46 43 42 41 43 41 35 35 32 30 31 31 32 35 36 36 34 31 30 31 30 29 28 29 29 29 28 27 27 27 25 23 22 21 22 21 22 23 22 18 10 7 8 10 15 20 23 26 26 23 23 22
36 36 36 36 36 36 35 35 35 35 36 37 39 43 46 49 50 51 52 52 54 56 57 58 57 58 58 57 56 55 56 56 54 54 54 54 53 52 51 51 51 49 50 49 47 46 43 41 41 44 40 35 36 36 34 34 33 34 34 36 34 32 31 30 30 30 29 27 26 27 28 28 27 27 26 25 23 22 22 21 21 22 23 22 16 9 7 9 10 15 20 24 27 27 23 23 23
38 38 37 37 36 35 34 32 32 32 34 36 39 42 47 49 51 52 50 50 53 55 56 56 56 57 57 57 56 56 56 55 54 53 53 53 52 52 52 51 50 49 51 48 45 46 45 41 40 42 42 42 40 37 36 34 36 37 36 37 34 32 31 29 28 29 28 26 24 24 25 27 27 26 26 25 23 22 22 21 21 23 22 21 16 10 9 10 11 14 18 23 27 28 25 24 23
39 39 39 39 37 36 34 31 31 32 35 38 39 42 46 48 51 52 51 51 53 55 55 56 56 56 56 56 56 57 56 55 53 52 52 53 53 52 52 51 50 50 50 46 44 46 45 42 40 41 42 44 40 35 34 33 35 37 38 39 36 33 31 29 28 28 27 26 24 24 25 26 27 26 25 25 23 22 22 21 22 23 23 22 18 12 11 12 13 14 17 22 27 29 27 25 24
40 40 40 39 38 37 34 32 32 34 37 39 40 43 46 47 49 50 51 52 54 55 55 56 57 56 55 55 56 56 56 55 54 54 53 54 53 53 52 51 49 49 50 46 44 46 45 41 40 40 41 42 40 36 36 35 35 34 35 36 34 34 32 30 28 28 27 27 26 25 25 25 26 25 24 24 23 23 22 22 22 23 23 23 20 16 14 14 15 15 16 21 26 29 28 25 24
42 41 40 40 39 37 35 33 34 36 38 40 42 44 46 48 48 49 50 52 54 56 55 57 57 56 54 54 55 55 55 55 54 54 54 54 53 53 52 51 48 48 50 48 45 45 45 40 38 40 40 40 42 41 39 39 38 35 34 34 34 33 32 31 29 28 27 27 26 24 24 24 25 24 24 24 24 23 22 22 23 24 24 23 22 20 18 16 16 17 17 20 26 28 29 27 25
45 43 41 41 39 37 35 35 37 38 40 42 43 45 47 49 49 49 49 50 54 56 57 58 57 56 54 53 54 54 55 54 53 54 54 54 53 53 53 52 49 48 50 50 47 45 44 40 36 39 39 39 42 44 43 41 41 39 37 35 35 34 32 31 29 28 26 26 24 22 22 22 22 22 23 24 24 23 23 23 23 24 25 24 24 23 21 19 18 18 18 20 25 27 28 28 26
48 47 45 43 40 37 37 38 40 41 42 44 45 46 48 50 50 50 49 50 53 56 57 58 56 56 54 52 53 53 54 53 54 54 53 54 54 53 53 52 50 50 51 51 48 44 44 42 37 35 36 38 39 40 40 38 38 39 39 39 38 36 34 33 31 28 24 23 21 20 20 20 20 20 21 22 23 23 23 23 23 24 25 25 25 24 23 21 20 19 19 21 24 26 26 28 28
49 49 48 46 43 40 40 41 43 44 45 46 47 48 49 51 51 51 50 50 53 55 56 57 56 57 55 52 51 52 52 53 54 53 53 54 54 53 53 52 51 51 52 51 47 44 45 45 40 35 32 34 34 34 31 28 28 29 32 35 38 39 38 37 33 28 23 20 19 19 18 18 20 20 21 22 23 24 24 24 23 24 25 26 25 24 23 22 21 20 20 21 24 26 26 27 28
49 49 50 48 45 44 44 44 45 46 47 47 48 50 51 52 52 52 51 51 53 54 55 55 55 57 56 52 50 51 51 52 53 52 52 53 53 54 53 53 52 51 52 52 48 43 45 46 44 40 36 32 31 33 34 32 29 26 27 28 31 35 37 38 34 28 24 20 20 21 19 19 21 21 22 23 24 24 25 24 24 24 26 27 25 24 23 22 21 21 21 21 24 27 26 28 29
48 49 50 48 46 46 46 46 47 48 49 49 50 52 53 53 53 53 53 53 54 54 55 56 55 56 54 51 50 50 51 50 51 51 50 51 52 54 54 53 52 51 51 53 49 41 43 47 45 44 42 38 34 35 37 40 39 32 29 28 27 29 32 34 32 29 25 22 23 24 23 21 21 23 23 23 24 25 25 24 24 25 26 27 26 24 22 22 21 22 22 22 25 28 27 28 29
50 49 49 48 46 47 47 47 49 50 50 52 53 54 55 54 55 55 55 54 55 56 57 57 55 53 50 50 51 50 51 50 49 49 49 49 52 54 54 54 53 51 50 53 50 42 41 45 43 40 41 44 42 39 37 40 44 40 35 31 30 30 31 32 32 31 28 25 25 26 26 23 22 24 23 23 24 25 25 24 25 26 27 27 26 24 21 21 22 23 22 23 26 29 29 30 30
53 52 51 49 48 48 48 48 49 50 51 53 55 56 57 56 57 57 56 56 56 58 58 57 53 50 47 48 51 52 51 49 49 49 48 49 52 54 54 54 55 53 51 52 49 42 40 41 40 37 38 43 46 44 44 43 44 46 43 39 36 35 33 34 34 34 32 28 27 28 29 26 24 25 24 23 23 24 25 25 26 26 27 27 25 22 21 22 23 23 23 23 28 30 30 32 33
57 56 55 52 50 50 50 51 51 52 53 54 56 58 58 58 58 58 58 57 58 59 59 57 53 49 47 48 51 52 50 48 47 48 47 50 53 53 54 55 58 56 52 52 47 41 40 39 40 41 41 43 45 47 48 48 47 48 48 46 43 41 39 37 37 37 35 32 30 31 32 29 26 26 26 25 24 25 26 27 27 27 28 27 24 22 22 23 24 24 23 24 29 31 31 33 35
58 58 57 55 54 54 54 54 54 54 54 55 57 58 58 59 60 59 59 58 59 61 60 58 55 51 49 48 49 49 49 48 47 48 48 51 53 53 54 56 60 58 54 52 47 42 42 41 42 45 46 45 46 48 49 50 50 50 49 49 46 44 42 40 39 39 39 37 34 34 33 31 27 26 25 25 26 26 27 28 28 28 27 26 24 23 23 24 24 25 24 26 31 32 33 35 34
58 58 57 57 57 57 58 58 58 57 57 57 58 59 59 59 60 60 60 61 61 61 62 60 57 54 50 48 48 47 49 51 49 49 49 51 53 54 54 56 61 61 56 54 49 47 46 44 44 46 47 46 46 47 47 49 50 51 50 50 49 46 44 42 42 42 41 40 37 34 33 31 28 25 24 25 26 27 27 28 28 28 26 25 24 24 24 24 25 25 24 27 32 33 34 35 32
58 57 57 56 57 58 61 62 61 61 60 60 60 60 60 59 61 62 61 62 62 62 63 63 59 56 52 49 47 46 49 52 51 51 51 51 53 55 55 55 61 62 59 57 53 51 49 46 47 46 47 48 46 45 44 46 47 49 50 52 51 49 47 46 45 44 43 42 38 35 33 30 28 25 23 24 25 26 26 27 27 26 25 24 24 25 25 25 24 24 26 30 33 34 35 34 31
59 58 58 57 58 59 61 63 63 64 64 63 62 62 61 60 61 62 62 62 63 63 64 64 61 57 54 51 48 48 51 53 53 52 51 51 54 57 57 56 60 63 62 61 59 54 50 49 50 49 51 50 47 48 46 45 45 46 47 50 52 52 50 48 48 47 45 42 39 36 33 29 27 25 23 23 23 24 25 26 25 25 25 24 24 24 24 24 24 25 27 31 33 35 35 34 32
61 60 59 59 59 59 60 62 63 65 66 66 65 64 63 62 63 62 62 63 62 63 64 65 64 60 56 53 50 49 51 52 53 53 52 52 55 57 58 57 59 63 64 63 63 59 52 50 53 54 56 54 49 52 53 50 47 45 43 45 48 51 52 50 49 48 45 43 40 36 33 29 28 26 24 23 23 23 23 24 24 25 26 25 25 24 23 24 25 26 29 32 34 35 35 34 34
62 62 62 61 60 60 61 63 63 65 67 67 67 66 65 66 65 64 64 63 63 64 65 66 67 64 58 55 52 51 52 52 52 54 53 52 54 58 60 58 58 62 65 63 65 63 55 51 54 55 56 56 53 55 56 54 50 46 44 44 45 46 47 46 45 44 43 43 41 37 34 31 29 28 26 25 23 23 23 23 24 26 27 27 26 25 24 25 27 28 31 33 35 35 35 35 35
64 64 63 63 63 63 64 64 64 65 66 67 67 67 67 67 67 67 66 64 65 66 66 66 68 67 62 58 55 53 52 52 52 54 55 55 55 58 62 61 58 61 65 64 64 65 59 54 55 56 56 57 56 57 58 57 54 50 48 48 46 44 43 41 39 39 40 41 40 37 35 31 28 26 26 26 24 23 23 25 26 27 28 29 28 27 27 27 29 30 33 34 35 35 35 36 35
66 65 65 65 65 66 66 66 67 66 67 68 68 67 67 68 68 68 68 67 68 68 69 69 69 70 66 61 57 54 53 54 53 53 55 57 56 57 61 64 60 58 63 64 62 63 61 56 54 55 58 57 57 59 60 60 58 55 52 49 46 44 42 37 35 37 38 39 38 36 34 31 28 25 23 24 24 23 24 27 29 29 29 30 30 30 29 30 31 33 35 35 35 36 36 35 34
68 68 67 67 66 67 68 68 69 69 68 69 68 68 68 68 68 68 69 70 70 71 72 71 71 71 69 65 60 55 54 55 54 54 56 59 59 57 58 62 60 55 60 64 61 60 61 57 49 48 56 59 59 59 60 61 60 58 54 50 46 45 42 36 34 35 36 37 36 34 32 29 28 26 23 22 23 24 25 28 31 30 30 31 32 32 32 32 33 34 36 36 37 36 35 34 33
69 70 70 69 68 67 68 69 71 71 70 70 69 69 68 69 67 67 69 71 72 73 73 73 72 73 72 68 62 57 56 56 56 56 58 59 59 58 57 59 60 56 57 63 63 60 59 59 49 42 48 58 62 61 60 60 57 55 54 50 48 48 44 37 34 34 34 34 33 31 30 29 27 26 26 25 24 25 26 28 30 31 31 32 33 34 35 35 35 35 36 37 37 35 34 33 32
69 70 70 70 70 68 68 69 71 71 71 70 69 69 69 69 67 68 72 73 74 74 74 74 73 74 75 71 65 59 58 58 58 58 58 57 57 59 57 56 59 59 57 60 65 64 61 59 54 47 47 56 63 63 62 60 56 53 53 52 49 49 47 41 36 35 34 33 32 31 30 29 28 27 28 28 28 29 30 31 32 32 33 35 37 37 37 36 35 35 36 37 36 35 34 32 32
68 68 69 70 70 69 68 68 69 70 70 70 68 68 70 71 70 72 76 75 74 74 75 75 74 75 76 74 69 61 60 60 60 60 60 57 56 58 56 55 57 58 58 59 63 68 65 61 59 56 54 57 63 65 64 63 60 56 54 53 51 50 51 47 41 39 37 35 34 32 31 31 30 29 29 29 31 32 34 35 35 36 36 38 39 38 37 36 35 35 36 36 36 36 34 32 32
64 64 66 67 68 69 69 68 68 68 69 69 67 68 72 74 74 76 77 76 75 74 74 75 75 76 76 76 74 66 62 62 62 62 61 59 57 58 57 55 55 54 56 58 60 66 69 66 63 61 60 62 64 65 65 64 63 61 58 56 53 51 51 52 48 44 42 39 37 35 34 33 32 31 30 31 32 32 34 35 36 37 37 38 38 37 36 36 36 37 37 37 36 35 34 33 32
61 61 63 64 65 68 68 68 68 69 69 68 68 70 73 75 76 77 78 77 77 76 75 75 76 77 78 78 78 73 66 64 64 63 63 60 57 59 60 56 51 47 47 49 50 58 67 70 69 64 62 63 65 66 66 64 62 61 59 58 57 55 52 53 53 49 47 44 41 38 36 35 34 32 31 32 33 34 35 35 35 36 36 37 37 37 37 37 38 37 36 36 35 34 33 33 32
60 60 62 62 63 65 65 65 67 68 68 68 69 71 73 75 77 77 78 78 78 78 78 78 77 78 79 80 80 78 72 66 66 66 64 62 58 60 61 55 45 38 37 40 43 48 59 67 71 70 66 63 64 65 66 66 63 60 57 56 56 55 53 53 53 52 50 47 44 41 39 37 34 32 31 32 33 35 37 37 36 36 36 37 38 38 36 37 38 36 35 36 35 35 34 34 33
58 59 60 62 63 63 62 63 64 65 66 67 69 71 73 75 77 77 78 78 79 79 80 81 80 79 81 83 83 82 77 70 68 68 66 63 60 60 61 53 43 38 42 47 48 46 51 60 66 71 72 67 63 64 65 66 66 63 59 56 55 53 52 52 51 51 51 49 46 42 41 39 36 33 31 31 33 34 37 38 37 37 38 39 39 38 37 37 37 35 36 36 35 36 35 34 32
54 55 57 59 61 62 61 62 62 62 62 64 66 68 71 74 76 78 78 79 80 80 81 81 82 81 82 85 86 85 82 75 70 69 68 65 62 61 60 56 47 45 51 56 55 50 50 57 59 63 72 74 70 66 65 65 65 65 63 61 59 55 54 53 53 53 52 51 48 45 43 41 39 36 33 32 32 33 36 39 38 37 40 42 41 39 37 36 36 36 36 36 36 37 35 33 31
50 51 52 54 57 59 59 59 59 60 61 61 63 64 66 70 73 76 77 79 79 79 80 80 81 82 83 86 88 88 85 78 72 71 71 67 64 63 62 62 57 54 59 59 57 54 51 56 57 57 66 75 78 75 71 68 65 64 64 64 63 62 59 57 56 55 55 54 52 49 46 44 41 39 35 32 31 31 32 36 38 39 41 43 43 40 39 38 37 37 37 38 38 36 34 32 30
46 47 49 50 53 55 56 56 55 56 59 60 61 61 63 67 70 73 74 75 75 75 77 78 80 82 83 87 89 90 88 81 75 74 74 70 68 67 66 65 60 59 64 62 58 56 53 57 59 60 65 70 75 78 77 74 70 67 65 66 65 63 61 58 58 57 56 56 54 52 49 47 44 41 37 33 31 30 30 33 36 39 41 42 42 40 40 40 39 39 39 39 37 34 32 31 30
43 44 46 48 50 52 53 52 51 51 54 57 58 59 62 66 69 71 71 71 70 71 73 75 78 81 83 86 90 91 90 85 79 76 76 73 70 70 69 66 62 62 66 63 59 58 56 58 61 67 72 70 69 74 79 79 76 72 69 69 68 64 62 61 60 59 58 58 57 55 52 50 47 45 42 37 34 33 33 35 36 39 40 40 40 40 41 41 40 40 40 39 35 32 30 30 29
40 41 43 44 46 48 48 48 49 48 49 53 55 56 59 64 67 70 70 69 68 69 71 73 76 80 83 86 89 91 91 88 83 79 78 76 73 73 72 69 65 66 68 64 61 60 57 56 61 70 75 74 70 71 79 83 79 76 73 72 71 69 68 66 65 64 62 61 61 59 56 54 52 50 48 45 42 40 39 39 42 44 43 42 42 41 42 42 41 41 40 37 33 31 30 29 30
34 35 37 39 41 43 44 45 46 46 47 50 52 52 56 61 64 68 69 68 68 69 71 73 76 79 83 85 88 91 92 90 85 81 80 79 77 76 76 73 70 71 71 68 65 63 61 60 62 68 74 77 76 73 77 83 83 78 75 72 72 71 70 70 69 67 67 66 65 63 60 57 56 54 52 51 48 45 43 42 45 47 47 44 43 43 42 42 42 41 38 36 33 31 30 30 31
27 29 31 33 35 36 39 40 41 42 43 47 49 50 54 58 60 63 67 68 68 69 70 72 75 78 82 85 88 91 93 93 89 84 83 83 81 79 79 78 76 76 75 73 71 70 69 68 66 64 67 74 80 80 77 80 83 80 76 72 69 69 67 66 65 62 62 65 64 61 58 56 56 54 52 51 49 46 45 45 45 46 44 42 42 42 42 42 41 39 38 36 33 32 31 32 32
22 23 25 26 28 29 32 34 35 36 39 42 45 47 51 56 57 60 63 66 67 68 70 72 75 78 81 85 88 91 94 95 92 88 86 87 86 83 82 82 81 81 81 77 76 75 74 74 71 65 61 65 72 76 75 76 80 80 76 69 64 63 62 60 58 53 53 59 59 56 53 52 52 50 48 48 48 45 44 44 43 42 40 40 41 41 40 41 40 38 37 35 33 32 32 32 32
17 19 20 21 22 23 25 28 30 32 35 37 40 43 48 53 55 57 60 62 65 67 69 71 74 77 81 84 87 91 94 96 94 90 87 89 89 87 86 86 85 86 86 83 80 77 76 75 71 68 65 64 65 67 69 72 76 79 76 70 63 62 63 58 53 50 49 53 55 53 52 49 48 46 44 44 45 43 42 42 40 38 38 38 39 38 39 40 39 38 36 35 33 31 31 32 33
13 15 17 17 18 19 20 22 24 27 31 33 35 36 42 48 51 54 57 58 62 65 68 71 74 78 81 84 87 90 94 96 95 92 88 89 91 90 90 90 89 90 89 87 85 80 78 75 69 70 71 67 64 64 66 68 72 76 77 73 64 61 64 60 52 51 51 51 52 53 50 47 45 43 42 43 43 43 42 40 38 37 36 36 36 37 38 39 38 37 36 34 31 30 31 32 33
10 11 13 14 16 17 18 19 20 23 27 31 31 29 35 44 49 51 53 55 59 63 67 71 74 77 80 83 87 89 92 96 96 93 89 90 92 92 93 93 92 93 92 90 89 85 80 74 71 75 77 72 67 65 65 66 69 73 76 74 67 61 63 63 56 54 52 48 47 48 46 45 45 43 41 42 42 42 41 38 36 36 35 35 35 36 37 38 38 37 35 33 31 32 32 32 33
12 13 13 14 16 18 18 19 20 21 24 28 26 23 28 39 46 47 48 52 58 61 65 69 72 76 78 81 85 87 90 94 95 94 89 89 93 94 95 95 94 97 97 93 91 89 83 77 76 79 79 77 76 72 67 66 67 70 71 72 70 64 64 66 61 54 51 48 45 43 43 44 44 43 42 41 41 40 38 36 35 35 36 35 36 37 37 38 38 37 35 33 32 32 32 33 34
14 15 15 16 18 19 19 20 21 21 23 25 22 19 25 34 40 43 45 50 56 60 63 65 69 73 77 79 82 85 88 92 95 95 91 89 92 96 97 97 96 99 100 95 91 92 88 80 79 79 75 76 79 76 70 67 68 69 67 66 67 65 66 66 59 53 51 51 48 44 42 43 43 42 42 41 40 39 36 35 35 36 37 37 38 38 38 38 37 36 34 33 33 33 34 35 35
14 16 16 16 17 19 19 20 22 23 24 25 21 18 23 31 35 39 44 49 53 57 59 61 65 70 74 77 80 83 86 89 94 97 94 90 91 96 99 98 97 100 103 98 92 94 94 86 79 75 72 73 76 74 68 65 66 67 65 63 63 60 61 62 56 52 53 53 52 49 44 43 42 42 43 42 41 39 38 38 38 38 38 38 39 39 38 38 37 36 34 34 34 35 36 36 36
14 17 18 17 17 18 18 18 20 22 23 24 22 19 21 29 34 37 42 47 48 51 55 57 61 65 70 75 78 80 83 87 92 97 98 94 91 95 99 100 99 100 103 101 96 94 97 94 82 72 72 75 76 73 67 63 64 66 64 65 66 60 57 59 56 54 55 54 54 52 47 45 44 43 45 46 45 44 44 43 42 41 40 39 40 40 39 38 38 37 36 36 37 37 37 37 37
14 17 19 21 22 22 21 20 20 20 21 23 23 20 21 28 33 34 37 41 43 46 51 54 58 62 67 73 77 79 82 85 90 96 99 98 94 95 99 102 101 101 101 101 99 95 97 99 89 75 73 76 75 74 70 65 65 66 64 64 67 63 56 55 55 56 57 56 55 55 51 48 46 45 48 50 51 51 50 49 46 43 42 42 42 42 40 39 40 40 39 38 39 38 38 37 36
13 15 18 21 24 25 25 24 22 20 18 20 22 21 21 26 31 31 31 34 40 44 48 52 56 61 65 71 76 79 82 85 89 94 99 101 98 96 99 103 104 104 102 101 99 97 98 101 95 80 75 77 76 75 73 70 68 68 68 67 68 66 59 52 50 53 57 58 57 57 53 50 48 48 50 52 53 52 52 50 47 45 44 44 44 44 42 41 41 42 41 40 38 37 36 35 34
15 17 20 23 24 26 26 26 25 22 18 18 21 21 22 25 28 28 27 29 36 42 47 51 54 59 63 68 74 79 82 85 88 92 98 102 102 98 98 103 106 106 105 103 100 100 99 99 94 83 78 79 79 77 76 76 73 71 72 74 74 73 67 56 49 49 52 54 56 55 53 51 50 50 52 53 52 51 51 50 49 47 47 47 46 44 43 42 43 43 41 38 37 36 35 34 33
18 20 22 24 24 24 25 24 25 25 23 21 22 22 22 23 25 26 26 27 32 38 44 50 53 57 61 65 70 77 81 84 88 91 96 101 104 102 99 102 106 107 106 105 104 104 101 96 90 83 80 82 83 80 79 79 78 75 76 79 80 77 72 61 53 49 47 48 52 53 52 52 53 53 54 54 53 51 51 51 50 48 47 48 46 44 44 43 43 42 38 36 36 36 35 34 33
20 22 23 25 25 24 25 25 25 26 26 26 26 26 25 24 24 24 25 27 30 34 39 45 50 55 60 64 68 74 80 84 87 89 93 99 103 104 101 101 105 108 108 106 106 107 105 97 90 84 83 86 87 85 82 81 81 80 80 83 82 77 72 64 55 50 46 47 51 52 53 55 56 55 53 52 52 51 51 51 49 47 46 46 45 43 42 41 41 41 38 37 37 36 35 35 35
19 21 23 26 26 25 23 23 23 24 25 24 25 27 28 28 27 25 25 26 28 32 36 41 47 53 58 63 67 71 77 82 86 88 91 95 101 104 103 101 103 107 109 108 107 109 108 101 93 87 86 89 90 89 86 85 86 85 84 84 78 69 66 65 62 56 50 48 50 51 52 55 56 54 52 51 50 49 49 49 47 46 45 44 43 42 41 40 40 40 40 38 38 37 37 38 39
17 18 21 24 25 25 22 19 20 22 23 21 20 23 26 28 29 29 28 27 27 30 34 39 45 50 55 60 64 67 72 78 82 86 89 92 97 103 105 102 101 105 108 109 109 110 109 105 97 90 88 90 91 90 90 90 91 90 88 81 70 60 59 61 66 68 64 56 52 51 50 51 54 54 51 49 49 48 47 47 46 46 46 45 43 42 41 40 40 40 41 40 39 39 39 40 42
16 18 21 23 25 25 23 19 19 20 22 21 18 19 23 26 28 30 30 31 30 30 32 37 41 46 51 56 61 65 69 74 78 83 87 90 94 100 104 104 102 103 106 109 111 111 111 107 101 93 89 90 91 91 92 93 93 93 89 79 68 62 59 57 60 67 72 69 62 57 52 49 51 54 51 48 47 47 47 47 47 47 48 46 44 43 41 39 39 40 41 41 40 40 40 42 43
20 21 23 25 26 25 23 21 21 20 22 24 22 19 20 24 27 29 31 32 34 33 32 34 38 42 46 52 58 63 66 70 74 79 84 88 91 95 101 104 104 103 104 106 110 113 113 110 105 98 93 91 91 92 92 93 95 92 82 74 69 64 57 54 54 57 61 67 68 64 58 55 53 53 50 46 44 46 47 48 47 48 49 47 45 43 42 39 38 40 41 40 40 40 41 42 43
20 20 23 24 25 25 25 24 24 24 25 28 28 24 21 22 26 29 30 31 33 35 35 34 35 38 41 47 54 59 63 66 71 75 80 85 88 91 96 101 104 104 103 104 107 112 114 112 109 105 99 93 91 92 92 92 93 87 76 69 68 64 58 54 53 53 53 58 63 63 61 60 59 56 51 46 43 44 47 48 48 48 49 48 45 43 41 40 39 40 40 40 40 40 41 42 43
14 16 20 22 22 21 23 23 22 25 27 29 29 28 26 25 27 28 30 30 31 33 34 34 33 34 37 41 48 54 58 62 67 72 76 81 86 89 92 97 102 104 103 103 104 108 112 112 110 108 105 99 94 93 92 91 89 82 74 71 68 65 62 57 53 52 51 54 59 60 59 58 57 56 53 50 48 45 45 48 49 48 47 47 45 44 42 40 40 39 40 40 40 40 41 41 42
Wind_Direction
253 252 251 250 249 248 247 246 246 245 245 243 243 243 244 245 245 245 244 243 242 241 241 243 244 245 244 243 242 242 241 241 242 242 242 242 242 241 240 240 239 238 237 237 237 238 240 243 245 245 244 245 248 249 250 251 252 254 256 254 253 253 252 253 254 255 259 264 266 268 270 271 272 274 279 283 284 285 287 291 297 302 306 310 316 317 313 311 326 344 349 352 351 346 343 337 333
253 253 252 252 251 249 248 247 247 246 245 243 243 242 243 244 244 245 245 243 241 240 240 240 242 243 243 242 241 241 241 241 241 241 241 241 240 240 239 238 238 237 237 238 238 238 240 244 246 244 245 245 245 246 248 250 253 256 258 257 255 255 255 254 253 255 259 263 267 269 269 270 271 274 280 282 281 281 284 289 294 301 305 311 317 316 307 314 336 348 352 355 351 346 341 334 331
252 252 252 252 251 250 249 249 248 246 245 244 243 243 243 243 243 244 244 242 240 239 238 238 239 241 242 241 240 240 240 240 239 240 241 241 240 239 238 237 237 236 237 238 238 238 238 243 243 240 243 242 240 241 242 245 249 253 255 256 257 256 257 257 255 256 258 263 267 268 267 269 271 273 279 279 277 278 282 287 293 300 305 311 318 313 302 319 339 349 354 355 350 345 340 333 330
252 250 249 249 249 249 249 249 247 246 246 245 244 243 242 242 241 242 242 241 240 239 238 238 238 240 240 240 239 238 238 238 237 237 239 240 239 238 237 236 235 235 236 237 238 237 235 239 241 238 238 236 238 239 238 239 241 245 250 254 257 257 257 259 258 255 256 262 267 268 266 267 269 273 277 275 273 276 280 285 291 299 304 312 317 305 299 316 333 347 355 354 348 346 341 333 331
252 250 248 247 246 246 246 246 246 245 245 244 242 243 242 242 241 241 240 240 240 239 238 238 238 238 239 240 239 238 237 236 235 235 237 238 238 237 236 235 234 233 235 236 236 234 233 236 239 238 236 237 240 240 241 241 240 244 249 253 257 259 258 257 257 254 254 259 265 268 267 267 269 273 275 272 271 274 278 283 291 298 303 309 310 294 295 310 324 340 351 350 346 346 341 334 332
254 252 250 247 245 244 242 241 243 242 243 243 241 243 243 242 243 241 240 238 239 239 238 238 237 236 237 238 238 238 236 234 233 233 233 235 235 235 234 233 232 231 233 235 234 232 230 233 238 239 238 238 240 241 241 243 246 249 253 255 257 258 255 254 255 253 253 258 264 268 268 268 269 272 272 269 269 272 276 282 290 297 300 305 303 288 290 305 318 330 340 344 345 345 341 334 333
257 254 252 250 247 244 241 238 239 240 242 242 240 243 244 243 243 242 240 238 238 238 238 238 237 234 234 236 237 237 236 234 231 230 230 231 232 232 231 231 230 230 231 233 234 232 230 233 238 240 242 240 238 236 236 239 244 247 253 256 257 256 252 251 255 253 254 259 264 268 268 269 271 271 269 267 268 270 275 281 289 294 297 300 298 286 287 299 314 324 327 336 342 343 341 335 333
260 257 254 252 249 245 242 239 238 239 241 242 240 243 244 244 242 242 241 238 238 238 237 238 237 234 232 233 235 235 236 235 231 229 228 229 229 229 228 227 227 227 229 232 233 232 231 234 240 243 246 246 240 236 236 239 240 242 248 253 253 253 250 251 256 254 256 260 264 266 267 269 270 267 264 265 266 269 275 280 288 293 294 296 295 287 284 292 309 321 319 327 339 341 339 335 333
262 260 257 254 251 247 244 241 241 240 241 242 241 242 244 244 243 241 241 239 238 238 237 237 237 236 232 231 233 233 234 234 233 230 227 227 227 227 227 225 224 225 227 230 231 230 229 230 237 242 245 248 244 241 241 241 242 242 244 248 249 249 249 252 256 254 258 261 262 266 267 270 269 265 263 263 264 269 275 279 287 290 292 293 292 289 285 290 303 316 315 319 333 339 338 333 333
261 261 259 257 254 250 246 244 242 241 241 241 241 243 244 245 244 242 241 240 239 238 238 237 237 237 233 230 232 232 232 232 232 231 227 225 225 225 225 223 222 223 226 229 229 228 227 227 230 236 241 244 243 247 251 249 249 248 245 245 246 248 248 252 257 254 258 260 261 268 271 272 271 270 266 264 266 269 273 278 285 288 290 291 289 287 287 291 299 310 312 316 328 336 337 332 331
258 258 258 258 256 253 250 246 244 243 242 241 242 243 244 245 245 244 242 241 240 239 239 238 237 237 234 230 230 231 231 231 231 230 228 226 224 223 223 221 220 222 225 227 228 226 226 227 226 225 230 239 241 245 249 249 254 257 253 249 247 248 248 253 255 252 256 259 262 267 269 272 272 274 270 266 267 269 273 278 284 287 289 290 287 285 287 292 298 304 307 313 325 333 334 331 330
257 256 256 255 255 253 251 249 247 246 245 243 243 244 244 244 245 245 243 241 241 240 240 239 236 237 235 230 228 230 230 230 230 229 228 227 225 223 222 220 219 221 224 226 227 227 228 228 227 224 222 230 240 240 236 236 243 251 253 250 247 246 247 248 248 249 254 259 266 265 264 275 274 273 272 268 268 269 273 278 283 288 289 289 286 284 286 293 297 298 303 311 322 330 330 328 329
258 256 255 253 251 250 249 248 248 247 247 246 245 245 244 244 244 245 244 242 241 241 240 239 237 236 236 233 229 229 229 228 228 228 226 226 227 225 222 219 217 221 225 226 227 228 228 229 230 230 226 226 235 240 238 236 236 236 239 241 240 242 242 241 242 248 254 261 270 267 266 279 278 273 271 268 269 269 272 276 282 287 288 288 286 285 287 290 292 294 300 308 319 327 326 325 328
258 256 254 252 249 248 246 245 245 245 245 245 245 245 245 244 244 244 244 243 241 241 240 239 237 236 235 235 233 229 229 227 226 226 224 224 226 226 222 219 216 219 224 226 227 226 227 229 229 232 233 230 232 237 239 238 236 232 231 235 238 241 243 241 243 248 253 262 272 269 268 280 281 272 269 268 269 268 270 275 281 286 286 286 285 286 286 286 287 291 298 306 316 324 322 321 326
257 255 254 251 248 247 245 243 241 241 241 242 243 244 244 244 244 244 244 244 243 242 241 240 238 236 235 234 234 231 228 227 225 224 223 223 225 225 221 218 216 215 220 225 224 221 223 226 225 227 233 233 232 237 239 237 237 235 232 235 240 242 244 245 247 249 252 260 268 271 272 279 280 271 267 268 268 267 269 275 281 284 284 283 283 283 283 282 283 289 297 305 315 320 319 319 323
258 256 253 251 248 246 244 242 239 238 238 239 240 241 243 244 244 244 245 245 245 245 243 242 239 235 233 232 234 233 229 226 226 223 221 222 223 222 220 217 216 214 217 221 219 219 219 220 222 224 229 231 232 237 240 238 238 239 237 238 241 243 245 246 246 249 252 257 267 274 275 278 278 271 268 267 268 267 270 276 280 281 281 280 280 280 280 279 281 290 296 303 313 317 317 318 322
260 257 255 251 248 246 244 242 239 237 236 237 238 239 240 242 243 244 245 244 245 246 244 242 239 234 231 231 232 232 230 226 224 223 220 221 221 219 218 217 215 213 216 217 217 218 218 220 222 224 228 229 232 237 240 241 240 241 242 242 242 243 245 247 246 248 253 257 266 274 275 277 276 270 268 266 266 267 270 274 277 278 278 278 280 280 278 278 283 291 296 303 313 315 315 317 322
261 259 256 253 249 247 244 242 240 238 236 236 237 237 238 239 241 242 243 244 244 245 246 243 240 236 231 229 230 230 231 226 222 221 221 221 219 218 218 217 215 213 214 215 215 216 215 220 223 224 227 229 233 236 239 243 244 242 243 242 241 242 245 248 248 249 254 259 266 272 274 275 271 266 265 265 266 268 270 272 274 275 276 278 280 280 279 281 287 291 294 304 312 313 314 318 322
261 260 257 255 251 248 245 243 240 238 237 236 236 236 236 237 239 240 241 243 244 245 247 245 241 238 233 228 227 227 229 226 222 220 220 220 219 217 217 217 215 213 213 213 214 215 215 219 221 222 224 227 230 231 234 239 241 242 243 242 241 242 245 248 249 251 256 260 264 268 272 271 264 260 262 264 265 267 268 269 270 273 277 280 279 279 281 284 286 287 293 305 311 311 314 318 320
262 260 258 256 252 249 246 244 241 239 237 236 236 236 236 236 237 238 239 240 243 244 246 247 244 240 236 231 225 225 228 226 222 220 219 219 218 216 217 218 216 214 213 213 215 218 218 219 221 221 223 225 225 226 229 233 236 240 243 242 242 243 244 246 248 252 256 259 262 266 270 266 257 256 260 261 263 264 265 267 269 273 278 280 279 279 280 282 283 285 296 306 309 310 314 316 318
264 261 259 256 254 251 249 246 242 239 237 235 235 235 235 235 236 237 237 237 240 242 243 246 246 241 236 233 226 223 226 226 222 220 218 217 218 216 216 218 217 214 213 214 216 220 222 223 224 224 224 223 224 227 229 232 237 239 242 242 243 244 245 246 247 250 255 258 261 264 266 262 255 257 261 263 263 263 263 266 269 273 277 278 278 279 279 280 282 288 299 306 307 309 312 314 316
264 262 260 257 254 252 250 247 244 240 238 235 234 234 233 234 234 235 235 236 237 239 240 242 244 242 237 233 229 224 225 226 224 221 218 216 217 216 216 218 218 215 214 215 215 218 223 225 226 227 226 226 227 230 232 234 237 239 242 243 244 247 248 249 250 251 253 256 258 259 261 261 260 262 265 265 263 263 263 265 268 270 274 275 276 278 279 281 284 291 300 304 306 309 310 312 314
264 262 260 257 254 251 249 248 245 241 238 235 233 233 233 233 234 234 234 234 235 236 237 239 241 242 238 233 229 225 224 225 225 222 219 217 216 216 217 218 218 215 214 216 216 218 222 225 228 229 230 230 230 232 235 236 238 239 243 245 247 249 252 253 254 253 252 253 253 254 256 259 263 265 267 267 264 260 259 261 265 268 271 273 275 278 280 284 287 293 299 303 305 308 309 310 312
263 262 260 257 254 251 248 247 245 241 238 235 233 232 232 233 234 235 234 233 234 235 236 236 238 240 238 233 228 225 224 224 224 223 220 218 216 216 218 219 219 217 215 215 217 217 221 225 229 231 231 233 233 233 236 238 239 241 245 247 248 249 252 254 254 254 251 250 249 250 251 255 261 264 263 266 266 261 257 257 260 264 268 270 272 275 280 284 288 294 298 301 304 306 306 308 310
263 261 260 257 255 252 249 247 245 242 239 236 234 233 232 233 233 235 236 234 233 235 235 235 236 238 238 234 228 222 222 224 224 223 222 219 216 215 218 220 219 219 216 214 216 217 219 224 228 233 234 233 233 234 237 239 241 243 246 247 247 247 249 250 250 250 248 245 244 244 247 252 258 261 257 256 259 258 254 254 256 260 263 265 268 272 278 284 290 295 298 299 302 303 304 307 310
262 260 259 258 256 253 250 247 245 243 240 237 235 234 234 234 234 235 237 236 233 233 235 235 235 237 238 235 229 221 219 222 223 223 222 219 217 216 217 219 219 219 217 214 215 216 219 223 224 230 236 233 232 234 236 239 241 243 244 244 244 245 245 246 247 246 244 242 242 243 247 252 256 257 253 245 243 244 245 247 250 254 258 262 266 272 278 284 290 294 297 299 300 302 304 306 309
262 260 259 258 257 255 252 249 247 245 242 240 237 236 236 236 235 236 238 237 235 233 233 235 235 236 238 237 232 223 218 219 221 222 223 221 217 216 216 217 218 219 218 215 214 215 219 224 224 225 232 234 232 233 235 237 239 240 241 241 244 246 244 244 245 245 246 245 245 246 248 250 253 253 251 246 239 237 239 242 245 250 257 263 269 274 279 285 290 293 296 297 299 302 304 305 308
264 262 260 259 258 256 254 251 248 246 245 242 239 238 238 238 236 237 238 238 237 235 233 233 234 235 237 238 235 226 219 218 219 221 223 221 217 215 215 216 218 219 218 215 214 214 217 222 225 227 231 236 235 234 236 238 238 239 240 241 244 247 246 245 245 247 250 250 250 250 250 251 251 250 250 250 246 243 243 244 247 253 260 268 273 276 282 286 289 292 293 294 297 302 304 305 307
266 264 262 260 259 257 255 253 251 249 247 244 241 239 239 238 237 238 239 239 239 237 235 233 233 234 235 237 236 230 221 218 218 219 221 221 217 213 212 213 216 218 218 218 217 216 217 220 225 229 233 237 239 238 238 240 240 241 241 242 244 246 247 246 245 248 251 252 252 251 250 250 248 247 248 251 252 252 252 252 253 257 263 269 273 278 282 286 288 291 291 292 297 300 301 303 306
267 265 262 260 258 256 255 253 252 249 247 244 242 240 239 239 238 238 239 239 239 239 238 235 233 232 232 234 235 233 224 218 218 219 219 220 217 212 212 211 212 217 220 223 226 223 222 222 224 228 232 236 238 239 240 241 241 242 243 244 245 246 248 248 248 249 252 252 252 251 249 247 246 246 247 250 253 255 256 257 258 261 266 271 275 280 282 284 286 288 290 293 297 298 299 301 303
264 263 261 260 258 256 255 253 251 249 246 244 242 241 241 240 239 238 238 238 239 239 239 238 235 231 230 230 232 233 227 219 217 218 218 217 215 212 212 211 209 210 214 226 236 234 230 227 227 228 230 234 237 238 239 240 241 241 242 244 245 246 247 249 250 249 251 251 250 250 248 246 245 247 248 251 253 255 256 256 257 260 265 271 274 276 275 278 283 287 292 296 297 297 298 299 300
262 261 259 258 257 256 254 253 251 249 246 244 243 242 241 242 241 240 238 238 239 239 239 239 237 233 229 227 229 231 229 221 216 217 217 215 214 212 209 207 206 203 202 213 228 235 238 233 231 232 232 232 235 237 237 238 240 240 241 242 244 246 246 247 249 249 248 249 249 248 248 247 246 248 250 252 254 256 256 255 255 258 261 266 267 267 268 273 281 288 294 297 297 297 298 298 297
262 260 258 257 256 256 254 253 252 250 248 245 243 242 242 242 242 241 240 239 239 239 239 239 238 234 228 225 226 229 229 223 216 216 216 214 212 210 207 200 199 204 203 206 216 225 236 235 231 235 236 233 232 234 235 236 238 239 240 242 242 243 244 246 247 248 248 247 248 248 249 249 249 250 251 254 256 256 256 255 255 258 260 262 263 265 269 276 284 290 295 297 298 297 297 295 294
263 261 259 257 256 256 255 252 251 250 249 247 244 243 242 242 242 241 240 239 238 238 238 237 236 233 227 224 224 226 228 224 216 214 215 212 210 207 204 199 196 203 206 205 210 216 228 235 233 237 238 235 232 232 235 236 237 238 239 241 242 243 244 246 246 247 248 248 248 249 250 250 250 251 252 253 255 255 256 255 254 257 259 260 262 266 272 280 287 291 295 297 296 296 294 292 292
264 262 260 258 257 256 256 254 251 250 249 248 245 243 242 242 242 241 239 238 236 235 235 234 233 231 226 222 222 224 226 225 217 214 214 211 209 205 202 201 199 202 206 204 205 209 221 232 235 238 239 238 236 234 236 238 237 237 239 240 242 243 244 246 247 247 247 248 248 249 249 250 250 250 250 251 254 256 259 259 257 257 258 260 263 268 275 282 287 291 294 294 293 293 291 289 290
264 262 260 259 257 256 257 256 254 250 249 249 247 245 244 243 243 241 239 237 235 233 232 232 231 230 226 221 220 222 224 224 218 213 213 210 208 205 202 202 201 202 204 202 202 206 216 225 232 238 240 240 241 238 236 237 238 237 238 240 242 243 244 245 247 248 248 248 249 249 249 249 250 250 249 249 253 258 263 265 265 263 262 264 267 272 277 282 286 290 292 291 291 290 287 287 289
265 263 262 260 259 259 258 258 257 253 250 249 248 245 243 243 242 242 240 237 234 232 230 230 230 229 226 221 219 220 222 223 220 213 211 209 207 205 202 201 201 201 201 201 201 204 210 218 228 236 239 240 241 239 235 235 237 237 237 239 241 243 244 246 248 249 250 251 251 250 249 248 250 251 251 252 255 260 264 266 268 268 266 268 270 273 277 281 285 289 289 288 288 286 284 285 288
269 266 264 263 262 261 259 256 255 254 252 250 248 245 244 242 241 240 239 236 233 231 229 227 228 228 227 222 217 218 221 223 221 214 210 208 206 204 203 201 201 201 201 201 202 203 203 208 220 231 237 239 239 238 236 235 235 236 238 239 242 245 247 249 250 252 253 253 252 250 249 248 249 252 253 255 258 261 265 267 267 266 265 266 269 272 276 281 285 287 286 285 284 283 283 284 285
272 268 265 263 263 262 262 259 256 254 252 251 248 245 245 244 241 239 239 236 233 231 228 226 226 227 226 223 218 216 218 221 221 216 209 207 205 204 203 202 202 203 204 202 202 203 201 203 211 222 233 238 237 237 237 235 234 236 238 240 243 246 249 251 253 255 255 253 250 248 246 246 248 251 254 257 260 263 266 267 265 262 262 264 268 271 276 281 284 284 283 282 281 280 281 282 284
274 270 266 264 264 263 263 262 259 255 252 250 249 246 245 244 242 240 238 237 234 230 228 226 225 225 226 224 220 216 216 219 221 217 210 207 205 203 203 203 203 205 205 203 203 205 203 203 207 212 221 232 234 234 235 235 233 234 236 238 240 244 250 254 257 258 256 251 247 244 244 245 248 251 253 257 260 262 264 262 258 257 260 263 267 272 278 281 281 281 280 280 280 280 281 282 285
276 273 270 266 264 264 263 263 260 256 252 249 248 248 247 245 242 241 239 236 235 231 228 226 225 224 225 225 221 217 216 218 221 219 212 207 205 204 203 203 204 205 205 204 204 206 205 204 206 207 212 223 227 227 231 232 232 233 234 235 238 245 252 255 255 253 252 248 244 243 244 246 249 251 252 254 258 259 258 255 252 255 259 263 269 274 277 278 278 278 278 279 280 280 280 281 285
266 271 276 274 271 268 264 263 261 257 253 249 245 247 250 247 242 240 239 237 235 233 229 226 225 224 224 224 222 218 216 218 220 220 214 209 206 204 203 203 203 203 204 204 204 205 205 205 209 210 211 217 220 223 228 230 231 232 233 233 234 241 247 248 247 246 246 244 243 246 246 246 248 250 250 252 256 255 252 250 251 255 261 265 270 274 275 275 276 276 277 277 277 276 277 280 284
290 292 297 296 291 285 277 270 266 261 257 251 244 241 247 250 245 239 237 238 236 234 230 227 225 224 224 224 223 220 217 218 220 221 216 210 207 206 204 203 202 202 203 204 205 206 206 209 215 216 217 219 219 222 228 229 230 232 233 232 231 235 241 243 243 242 243 245 247 250 248 245 247 248 248 251 251 249 247 248 252 258 262 266 271 273 273 274 274 276 276 275 274 275 278 280 282
323 320 317 311 303 295 290 284 277 271 267 259 250 242 244 248 247 241 236 235 236 234 231 228 225 224 224 224 224 222 218 218 220 222 218 212 208 207 206 205 203 202 203 203 205 207 208 211 215 218 221 223 221 221 225 227 230 230 232 233 232 235 240 242 242 242 246 251 253 253 250 245 246 246 246 247 244 243 245 248 255 260 263 268 272 273 272 272 274 275 275 274 274 275 275 277 281
331 327 323 317 308 300 298 295 291 287 282 274 264 255 251 249 247 244 239 235 235 234 232 229 227 225 224 224 223 222 219 217 218 221 221 215 210 209 208 207 204 203 203 204 205 207 209 212 214 216 221 222 220 221 223 226 228 228 230 232 231 234 239 238 238 243 251 256 256 255 253 247 245 243 243 242 239 240 244 249 256 262 266 270 272 272 271 271 273 274 273 273 272 272 273 277 283
329 322 317 312 305 301 302 303 301 300 297 292 283 271 263 257 248 244 242 237 234 235 233 231 228 226 225 224 224 223 221 218 217 219 221 218 212 209 209 209 207 204 203 204 206 208 210 212 215 217 218 217 217 221 223 224 225 225 227 227 224 228 234 235 238 246 253 257 257 255 252 247 243 240 240 239 237 239 244 250 256 262 267 270 271 271 270 269 271 271 270 270 269 271 274 279 283
330 324 320 314 307 306 307 306 304 305 305 301 294 283 271 263 252 243 243 241 236 235 235 233 231 228 226 225 224 223 221 219 217 217 220 220 215 211 210 210 209 207 206 206 207 209 210 214 217 218 216 214 216 219 220 220 221 221 222 222 221 224 230 234 241 249 252 254 254 252 249 246 242 239 239 240 239 242 247 253 258 262 266 268 269 269 268 268 269 269 269 269 270 273 275 278 282
339 334 332 329 326 325 322 318 314 313 312 306 298 289 277 268 259 248 244 243 240 235 233 232 231 228 225 224 224 222 221 220 218 216 218 220 218 213 210 211 210 210 209 208 208 210 211 214 218 218 215 214 217 218 217 217 218 217 216 218 220 222 227 234 240 245 247 248 248 248 247 245 242 239 239 241 242 245 249 254 258 261 264 267 268 266 264 265 267 268 269 270 272 274 275 277 280
346 341 342 340 338 334 331 330 326 323 320 313 306 297 284 274 269 260 249 243 239 236 232 230 230 229 226 223 223 222 221 220 218 216 216 218 219 215 211 211 211 211 211 211 210 210 211 214 217 218 216 215 217 218 216 215 216 215 214 215 219 222 225 231 238 242 243 244 244 244 245 245 244 242 240 241 244 246 250 253 256 259 263 265 265 263 262 263 266 267 269 271 272 274 275 277 278
351 350 350 348 345 341 338 338 333 328 328 324 317 307 293 283 277 271 259 247 240 237 233 229 227 228 227 224 222 222 220 219 218 216 216 217 219 217 213 211 211 211 212 212 211 210 211 214 216 217 217 216 217 218 217 215 215 215 215 215 219 222 224 228 237 242 240 240 242 243 245 247 248 245 242 242 244 246 249 252 255 259 262 263 262 259 259 262 263 266 269 271 273 275 277 278 279
354 354 351 350 348 346 342 341 338 333 334 335 327 318 307 295 287 280 269 255 245 239 235 231 228 227 227 226 223 222 221 220 219 217 216 216 218 218 215 212 211 212 212 212 211 210 211 213 216 217 218 218 217 218 218 216 215 216 217 218 219 221 223 228 236 240 238 238 241 244 247 250 249 247 245 245 246 247 250 253 256 258 259 260 259 257 258 261 263 267 270 273 274 276 279 282 285
354 349 347 348 350 352 347 343 342 337 338 340 333 325 319 309 301 291 278 265 253 245 239 236 232 228 226 225 224 223 222 220 219 218 216 216 217 218 217 214 212 212 212 212 211 210 211 214 217 218 220 219 217 217 217 217 217 217 218 220 221 220 222 227 234 240 241 240 242 247 251 251 248 247 248 248 248 249 251 253 254 255 255 256 258 257 258 261 264 269 273 274 276 278 282 286 290
346 340 343 345 349 355 352 343 340 336 336 340 333 326 324 319 314 306 293 277 263 252 244 237 234 230 228 226 225 223 223 222 220 219 218 216 216 218 218 216 213 212 212 212 211 211 212 215 217 218 220 219 218 217 216 216 217 217 219 222 224 224 225 230 235 240 243 244 244 249 255 255 251 249 248 248 249 249 249 250 249 249 250 252 255 257 259 261 264 269 273 275 278 281 285 288 291
337 336 341 343 346 355 355 345 338 332 330 333 328 322 323 322 318 315 308 295 278 263 252 243 236 232 230 228 227 225 224 224 222 220 219 218 216 216 218 217 215 213 213 212 211 211 213 215 216 217 219 218 218 218 217 216 217 217 218 220 225 232 237 240 241 241 242 244 249 252 255 255 252 250 248 248 249 248 246 246 244 245 247 248 252 255 258 260 264 269 274 276 279 283 286 288 290
337 340 340 341 347 353 353 346 339 331 326 327 325 316 315 318 318 315 313 306 295 281 264 253 243 236 231 229 227 226 224 224 223 222 221 219 217 216 217 218 216 215 214 213 211 211 213 215 215 217 219 218 217 218 218 218 218 219 218 216 221 232 242 249 251 246 241 242 247 251 253 253 251 250 250 248 247 245 244 242 241 244 247 247 250 254 256 259 263 268 271 275 279 282 285 287 288
343 342 340 341 346 347 346 345 342 338 331 330 331 322 310 310 312 310 309 306 301 293 279 264 252 242 234 231 229 227 225 223 222 222 222 221 219 217 216 217 217 216 215 214 212 212 213 215 215 217 218 218 217 218 219 219 220 220 219 216 217 224 233 243 252 253 247 244 246 248 252 256 253 251 251 247 241 238 239 241 241 243 247 249 250 253 255 258 264 268 271 275 279 282 283 285 286
338 338 335 338 343 342 344 348 348 343 336 331 333 331 320 311 309 308 306 302 297 294 288 273 260 250 240 232 230 229 227 225 222 221 221 221 221 219 217 216 217 216 215 215 214 213 214 215 215 216 218 218 218 219 220 221 221 220 218 216 214 215 219 226 239 248 250 249 249 250 255 258 256 253 250 243 237 236 236 239 241 242 245 250 252 253 253 257 263 267 270 274 278 280 281 283 285
327 331 330 335 343 343 343 347 344 337 331 329 330 332 330 324 319 316 313 308 299 293 289 280 266 256 247 236 231 230 228 226 224 221 220 220 220 221 219 217 216 216 215 215 214 214 215 215 215 216 217 218 218 219 220 221 221 218 214 214 213 211 211 215 223 235 242 247 249 250 252 254 253 252 249 242 241 242 239 238 239 241 244 249 253 253 253 257 262 266 270 273 276 279 281 282 283